Weather History for Dublin, Ireland

Change the Weather History Date:

Tuesday, April 16, 2013

  Actual Average Record
Temperature  
Mean Temperature 52 °F -  
Max Temperature 57 °F 56 °F 64 °F (2003)
Min Temperature 46 °F 42 °F 28 °F (1998)
Degree Days  
Heating Degree Days 14    
Growing Degree Days 2 (Base 50)    
Moisture  
Dew Point 36 °F    
Average Humidity 56    
Maximum Humidity 76    
Minimum Humidity 26    
Precipitation  
Precipitation 0.00 in 0.07 in - ()
Sea Level Pressure  
Sea Level Pressure 29.69 in    
Wind  
Wind Speed 23 mph ()    
Max Wind Speed 34 mph    
Max Gust Speed 54 mph    
Visibility 6.6 miles    
Events Rain    
Averages and records for this station are not official NWS values.
T = Trace of Precipitation, MM = Missing Value Source: Averaged Metar Reports

Daily Weather History Graph

Daily Weather History Graph

Search for Another Location

Airport:

Trip Planner

Search our weather history database for the weather conditions in past years. The results will help you decide how hot, cold, wet, or windy it might be!

Date:

Astronomy

Apr. 16, 2013 Rise Set
Actual Time 6:23 AM IST 8:27 PM IST
Civil Twilight 5:45 AM IST 9:05 PM IST
Nautical Twilight 4:58 AM IST 9:53 PM IST
Astronomical Twilight 4:04 AM IST 10:48 PM IST
Moon 10:05 AM IST (4/16) 1:39 AM IST (4/16)
Length of Visible Light 15h 19m
Length of Day
14h 04m
Waxing Crescent, 31% of the Moon is Illuminated
Apr 16
Waxing Crescent
Apr 18
First Quarter
Apr 25
Full
May 2
Last Quarter
May 10
New

Hourly Weather History & Observations

Time (IST) Temp. Windchill Dew Point Humidity Pressure Visibility Wind Dir Wind Speed Gust Speed Precip Events Conditions
12:00 AM 51.8 °F - 44.6 °F 76% 29.50 in 6.2 mi South 19.6 mph 31.1 mph N/A   Mostly Cloudy
12:30 AM 50.0 °F - 42.8 °F 76% 29.47 in 6.2 mi South 23.0 mph - N/A   Mostly Cloudy
1:00 AM 51 °F - 43 °F 65% 29.49 in 12 mi South 22.4 mph - -   Partly Cloudy
1:00 AM 51.8 °F - 42.8 °F 71% 29.47 in 6.2 mi SSW 24.2 mph - N/A   Scattered Clouds
1:30 AM 51.8 °F - 42.8 °F 71% 29.47 in 6.2 mi SSW 25.3 mph 43.7 mph N/A   Scattered Clouds
2:00 AM 50.0 °F - 41.0 °F 71% 29.47 in 6.2 mi SSW 26.5 mph 40.3 mph N/A   Scattered Clouds
2:30 AM 50.0 °F - 42.8 °F 76% 29.47 in 6.2 mi SSW 25.3 mph - N/A   Scattered Clouds
3:00 AM 50.0 °F - 41.0 °F 71% 29.47 in 6.2 mi SSW 25.3 mph 40.3 mph N/A   Partly Cloudy
3:30 AM 50.0 °F - 41.0 °F 71% 29.47 in 6.2 mi SSW 27.6 mph 42.6 mph N/A   Partly Cloudy
4:00 AM 50.0 °F - 41.0 °F 71% 29.47 in 6.2 mi SSW 28.8 mph 41.4 mph N/A   Partly Cloudy
4:30 AM 50.0 °F - 41.0 °F 71% 29.47 in 6.2 mi SSW 29.9 mph 41.4 mph N/A   Partly Cloudy
5:00 AM 50.0 °F - 39.2 °F 66% 29.47 in 6.2 mi SW 28.8 mph - N/A   Partly Cloudy
5:30 AM 50.0 °F - 39.2 °F 66% 29.50 in 6.2 mi SW 32.2 mph 43.7 mph N/A   Partly Cloudy
6:00 AM 48.2 °F - 41.0 °F 76% 29.50 in 6.2 mi SW 31.1 mph 42.6 mph N/A   Scattered Clouds
6:30 AM 48.2 °F - 41.0 °F 76% 29.53 in 6.2 mi SW 28.8 mph - N/A   Scattered Clouds
7:00 AM 48 °F - 40 °F 67% 29.57 in 16 mi SW 29.1 mph - - Rain Light Rain Showers
7:00 AM 48.2 °F - 41.0 °F 76% 29.53 in 6.2 mi SW 31.1 mph 43.7 mph N/A   Scattered Clouds
7:30 AM 48.2 °F - 39.2 °F 71% 29.56 in 6.2 mi SW 29.9 mph 42.6 mph N/A   Partly Cloudy
8:00 AM 48.2 °F - 41.0 °F 76% 29.59 in 6.2 mi WSW 32.2 mph 43.7 mph N/A Rain Light Rain Showers
8:30 AM 48.2 °F - 41.0 °F 76% 29.59 in 6.2 mi WSW 26.5 mph - N/A   Scattered Clouds
9:00 AM 50.0 °F - 39.2 °F 66% 29.62 in 6.2 mi WSW 27.6 mph - N/A   Scattered Clouds
9:30 AM 50.0 °F - 39.2 °F 66% 29.62 in 6.2 mi WSW 29.9 mph 43.7 mph N/A   Scattered Clouds
10:00 AM 51.8 °F - 39.2 °F 62% 29.62 in 6.2 mi SW 33.4 mph 47.2 mph N/A   Partly Cloudy
10:30 AM 51.8 °F - 37.4 °F 58% 29.65 in 6.2 mi WSW 31.1 mph 44.9 mph N/A   Scattered Clouds
11:00 AM 51.8 °F - 39.2 °F 62% 29.68 in 6.2 mi SW 32.2 mph 48.3 mph N/A Rain Light Rain Showers
11:30 AM 53.6 °F - 32.0 °F 44% 29.68 in 6.2 mi WSW 34.5 mph 54.1 mph N/A   Partly Cloudy
12:00 PM 51.8 °F - 37.4 °F 58% 29.71 in 6.2 mi West 27.6 mph - N/A   Scattered Clouds
12:30 PM 55.4 °F - 32.0 °F 41% 29.71 in 6.2 mi WSW 33.4 mph 48.3 mph N/A   Scattered Clouds
1:00 PM 55 °F - 32 °F 30% 29.76 in 22 mi WSW 31.3 mph - -   Partly Cloudy
1:00 PM 55.4 °F - 32.0 °F 41% 29.74 in 6.2 mi WSW 32.2 mph - N/A   Scattered Clouds
1:30 PM 55.4 °F - 30.2 °F 38% 29.77 in 6.2 mi WSW 29.9 mph 42.6 mph N/A   Scattered Clouds
2:00 PM 53.6 °F - 32.0 °F 44% 29.77 in 6.2 mi West 26.5 mph 38.0 mph N/A   Scattered Clouds
2:30 PM 55.4 °F - 32.0 °F 41% 29.80 in 6.2 mi WSW 27.6 mph - N/A   Scattered Clouds
3:00 PM 55.4 °F - 33.8 °F 44% 29.80 in 6.2 mi WSW 26.5 mph - N/A   Scattered Clouds
3:30 PM 55.4 °F - 32.0 °F 41% 29.80 in 6.2 mi WSW 25.3 mph - N/A   Scattered Clouds
4:00 PM 55.4 °F - 32.0 °F 41% 29.83 in 6.2 mi WSW 23.0 mph - N/A   Scattered Clouds
4:30 PM 57.2 °F - 33.8 °F 41% 29.83 in 6.2 mi WSW 21.9 mph 34.5 mph N/A   Scattered Clouds
5:00 PM 57.2 °F - 30.2 °F 36% 29.83 in 6.2 mi WSW 20.7 mph - N/A   Scattered Clouds
5:30 PM 55.4 °F - 30.2 °F 38% 29.83 in 6.2 mi WSW 23.0 mph - N/A   Partly Cloudy
6:00 PM 55.4 °F - 32.0 °F 41% 29.86 in 6.2 mi WSW 19.6 mph - N/A   Partly Cloudy
6:30 PM 55.4 °F - 32.0 °F 41% 29.86 in 6.2 mi WSW 17.3 mph - N/A   Partly Cloudy
7:00 PM 54 °F - 29 °F 26% 29.88 in 31 mi SW 17.9 mph - -   Scattered Clouds
7:00 PM 53.6 °F - 30.2 °F 41% 29.86 in 6.2 mi SW 17.3 mph - N/A   Scattered Clouds
7:30 PM 53.6 °F - 28.4 °F 38% 29.89 in 6.2 mi SW 16.1 mph - N/A   Mostly Cloudy
8:00 PM 51.8 °F - 28.4 °F 41% 29.89 in 6.2 mi WSW 12.7 mph - N/A   Mostly Cloudy
8:30 PM 50.0 °F - 30.2 °F 47% 29.89 in 6.2 mi WSW 8.1 mph - N/A   Mostly Cloudy
9:00 PM 50.0 °F - 28.4 °F 43% 29.89 in - SW 8.1 mph - N/A   Clear
9:30 PM 50.0 °F - 28.4 °F 43% 29.92 in - Variable 3.5 mph - N/A   Clear
10:00 PM 46.4 °F 43.5 °F 30.2 °F 53% 29.92 in - South 5.8 mph - N/A   Clear
10:30 PM 46.4 °F 42.9 °F 30.2 °F 53% 29.89 in - South 6.9 mph - N/A   Clear
11:00 PM 46.4 °F 42.9 °F 32.0 °F 57% 29.89 in - SSW 6.9 mph - N/A   Clear
11:30 PM 46.4 °F 43.5 °F 33.8 °F 62% 29.89 in - South 5.8 mph - N/A   Clear